Regional Weather Roundup
Issued by NWS

Home | Current Version | Previous Version | Text Only | Print | Product List | Glossary Off
Versions: 1 2 3 4 5 6 7 8 9 10 11 12 13 14 15 16 17 18 19 20 21 22 23 24 25 26 27 28 29 30 31 32 33 34 35 36 37 38 39 40 41 42 43 44 45 46 47 48 49 50

000
ASUS43 KLMK 060202
RWRKY
KENTUCKY REGIONAL WEATHER ROUNDUP
NATIONAL WEATHER SERVICE LOUISVILLE KY
900 PM EST THU MAR 05 2015

NOTE "FAIR" INDICATES FEW OR NO CLOUDS BELOW 12,000 FEET
WITH NO SIGNIFICANT WEATHER AND/OR OBSTRUCTIONS TO VISIBILITY.

KYZ001>023-026-027-061>063-070>075-060300-
WESTERN AND SOUTH CENTRAL KENTUCKY

CITY           SKY/WX    TMP DP  RH WIND       PRES   REMARKS
PADUCAH        PTCLDY    15   4  61 NE7       30.58R WCI   5
HENDERSON      MOCLDY    16   1  53 N6        30.60S WCI   7
OWENSBORO      PTCLDY    12   3  67 NW7       30.59S WCI   1
HOPKINSVILLE   PTCLDY    17   3  56 N7        30.56R WCI   7
BOWLING GREEN  PTCLDY    18   6  59 NW6       30.55R WCI  10
GLASGOW        NOT AVBL
$$

KYZ024-025-028>034-038-045-046-053-060300-
NORTH CENTRAL KENTUCKY

CITY           SKY/WX    TMP DP  RH WIND       PRES   REMARKS
LOUISVILLE/SDF CLOUDY    24  11  57 N8        30.54R WCI  15
LOUISVILLE/LOU CLOUDY    23  10  57 N3        30.55R
FORT KNOX      PTCLDY    18   8  64 NW6       30.51R WCI  10
$$

KYZ035>037-039>044-047>052-055>060-089>105-060300-
NORTHEAST KENTUCKY

CITY           SKY/WX    TMP DP  RH WIND       PRES   REMARKS
LEXINGTON      MIX PCPN  15  11  83 E3        30.51R
COVINGTON      CLEAR     17   4  56 N6        30.51R WCI   9
FRANKFORT      PTCLDY    11   6  81 CALM      30.51R
$$

KYZ054-064>069-076>088-106>120-060300-
SOUTHEAST KENTUCKY

CITY           SKY/WX    TMP DP  RH WIND       PRES   REMARKS
JACKSON        CLEAR     15   8  73 NE3       30.46R
LONDON         MOCLDY    13   7  77 CALM      30.48R
SOMERSET       NOT AVBL
MIDDLESBORO    CLOUDY    20  13  74 N8        30.47R WCI  11
MONTICELLO     MOCLDY     2  -2  83 CALM      30.53R FOG
$$



USA.gov is the U.S. government's official web portal to all federal, state and local government web resources and services.